sat.trackr.live / text

‹ back to catalog

ORBCOMM FM27

NORAD 25481 · 1998-053G

PAYLOAD ACTIVE UNKNOWN

§ Identity

Operator
Country
ORB
Launch date
1998-09-23
Launch site
ERAS
Launch vehicle
Mass (kg)
RCS (m²)
0.66

Purposes: comms

External: N2YO · Heavens-Above · Gunter

§ Orbital elements

Epoch: 2026-09-19T22:31:58.648800Z

Period
100.05 min
Inclination
45.0044°
Eccentricity
0.0002771
Mean motion
14.39282762 rev/d
Perigee alt
758.9 km
Apogee alt
762.8 km
Semi-major
7,139.0 km
B*
2.2111e-4
RAAN
245.2586°
Arg perigee
306.3755°
Mean anomaly
53.6838°
Rev number
46,388

§ Raw data

ORBCOMM FM271 25481U 98053G   26262.93887325  .00000550  00000+0  22111-3 0  99972 25481  45.0044 245.2586 0002771 306.3755  53.6838 14.39282762463883

JSON: /api/v1/satellites/25481 · /tle

For live sub-satellite position, see the globe view (requires WebGL).

§ Visibility from observer

Set your observer location to see the next 7 days of passes ≥ 10°. The values pass through the URL so the page stays shareable.

No JS? Fill the form by hand. The geolocation button needs JavaScript.